AD5L Weather Reports


Display with metric or nautical units.
time (UTC)temp
F
wind
direction
speed
MPH
gust
MPH
rain 1hr
in
rain 24hr
in
rain mn
in
humidity
%
barometer
mb
20260904115329 79 93 2.0 5.0 0.00 0.00 0.00 92 1014.5
20260904114337 79 100 3.0 6.0 0.00 0.00 0.00 92 1014.4
20260904113328 80 106 2.0 5.0 0.00 0.00 0.00 91 1014.2
20260904112339 80 126 1.0 5.0 0.00 0.00 0.00 90 1013.8
20260904111330 80 144 1.0 5.0 0.00 0.00 0.00 90 1013.7
20260904110341 80 148 2.0 7.0 0.00 0.00 0.00 90 1013.7
20260904105323 80 151 1.0 10.0 0.00 0.00 0.00 89 1013.7
20260904104340 80 146 4.0 11.0 0.00 0.00 0.00 89 1013.5
20260904103322 80 155 3.0 8.0 0.00 0.00 0.00 89 1013.4
20260904102332 80 167 4.0 6.0 0.00 0.00 0.00 89 1013.5
20260904101322 80 148 3.0 8.0 0.00 0.00 0.00 89 1013.5
20260904100332 80 200 1.0 6.0 0.00 0.00 0.00 89 1013.4
20260904095322 80 179 3.0 9.0 0.00 0.00 0.00 89 1013.2
20260904094333 80 162 2.0 7.0 0.00 0.00 0.00 89 1013.2
20260904093324 80 146 3.0 7.0 0.00 0.00 0.00 88 1013.2
20260904092335 80 154 3.0 7.0 0.00 0.00 0.00 88 1013.2
20260904091326 80 182 2.0 7.0 0.00 0.00 0.00 88 1013.1
20260904090337 80 190 2.0 8.0 0.00 0.00 0.00 88 1013.2
20260904085328 80 174 2.0 9.0 0.00 0.00 0.00 88 1013.3
20260904084338 80 118 3.0 10.0 0.00 0.00 0.00 88 1013.3
20260904083329 81 161 5.0 11.0 0.00 0.00 0.00 88 1013.3
20260904082340 81 148 2.0 9.0 0.00 0.00 0.00 88 1013.4
20260904081332 81 162 3.0 10.0 0.00 0.00 0.00 87 1013.4
20260904080344 81 144 4.0 10.0 0.00 0.00 0.00 87 1013.4
20260904075334 81 120 4.0 12.0 0.00 0.00 0.00 87 1013.3
20260904074340 81 125 4.0 9.0 0.00 0.00 0.00 87 1013.3
20260904073349 81 175 3.0 9.0 0.00 0.00 0.00 87 1013.4
20260904072330 81 159 3.0 8.0 0.00 0.00 0.00 87 1013.4
20260904071322 81 162 4.0 8.0 0.00 0.00 0.00 87 1013.5
20260904070332 81 144 2.0 9.0 0.00 0.00 0.00 86 1013.7
20260904065339 81 207 1.0 8.0 0.00 0.00 0.00 86 1013.7
20260904064330 81 157 3.0 9.0 0.00 0.00 0.00 86 1013.9
20260904063340 81 212 3.0 9.0 0.00 0.00 0.00 86 1013.8
20260904062330 81 171 4.0 9.0 0.00 0.00 0.00 86 1013.5
20260904061341 81 188 4.0 12.0 0.00 0.00 0.00 86 1013.7
20260904060331 81 140 3.0 10.0 0.00 0.00 0.00 86 1013.7
20260904055321 81 150 4.0 8.0 0.00 0.00 0.00 86 1013.7
20260904054333 81 132 4.0 7.0 0.00 0.00 0.00 86 1013.6
20260904053324 81 137 1.0 11.0 0.00 0.00 0.00 86 1013.7
20260904052334 81 154 5.0 10.0 0.00 0.00 0.00 85 1013.5
20260904051326 81 139 4.0 8.0 0.00 0.00 0.00 85 1013.6
20260904050336 81 133 4.0 13.0 0.00 0.00 0.00 85 1013.4
20260904045347 81 207 4.0 10.0 0.00 0.00 0.00 85 1013.3
20260904044338 81 129 5.0 12.0 0.00 0.00 0.00 85 1013.4
20260904043349 81 146 4.0 8.0 0.00 0.00 0.00 84 1013.4
20260904042340 81 125 4.0 10.0 0.00 0.00 0.00 84 1013.4
20260904041349 81 152 4.0 9.0 0.00 0.00 0.00 83 1013.4
20260904040332 81 128 4.0 10.0 0.00 0.00 0.00 82 1013.4
20260904035322 81 133 4.0 10.0 0.00 0.00 0.00 82 1013.3
20260904034334 81 118 3.0 9.0 0.00 0.00 0.00 81 1013.3
20260904033325 81 137 4.0 8.0 0.00 0.00 0.00 80 1013.3
20260904032332 82 135 2.0 16.0 0.00 0.00 0.00 80 1013.2
20260904031323 82 105 3.0 9.0 0.00 0.00 0.00 79 1013.1
20260904030335 82 105 5.0 13.0 0.00 0.00 0.00 79 1013.1
20260904025325 82 145 4.0 11.0 0.00 0.00 0.00 78 1012.9
20260904024332 82 127 5.0 12.0 0.00 0.00 0.00 77 1013.0
20260904023322 83 158 3.0 9.0 0.00 0.00 0.00 76 1012.8
20260904022333 83 118 4.0 9.0 0.00 0.00 0.00 76 1012.7
20260904021342 83 113 1.0 7.0 0.00 0.00 0.00 75 1012.7
20260904020330 83 96 1.0 8.0 0.00 0.00 0.00 74 1012.6
20260904015336 83 125 0.0 6.0 0.00 0.00 0.00 74 1012.4
20260904014326 84 94 2.0 10.0 0.00 0.00 0.00 74 1012.3
20260904013337 84 117 4.0 10.0 0.00 0.00 0.00 74 1012.4
20260904012326 84 115 2.0 9.0 0.00 0.00 0.00 74 1012.5
20260904011333 84 123 4.0 12.0 0.00 0.00 0.00 73 1012.2
20260904010342 85 133 5.0 14.0 0.00 0.00 0.00 73 1012.1
20260904005332 85 82 6.0 15.0 0.00 0.00 0.00 73 1012.0
20260904004341 85 115 4.0 12.0 0.00 0.00 0.00 72 1012.0
20260904003323 86 122 4.0 13.0 0.00 0.00 0.00 71 1012.0
20260904002342 87 139 6.0 14.0 0.00 0.00 0.00 71 1012.0
20260904001322 88 122 6.0 13.0 0.00 0.00 0.00 70 1011.9
20260904000334 88 141 5.0 18.0 0.00 0.00 0.00 70 1011.9
20260903235325 89 79 7.0 16.0 0.00 0.00 0.00 70 1011.8
20260903234336 89 77 4.0 17.0 0.00 0.00 0.00 70 1011.7
20260903233327 90 106 8.0 20.0 0.00 0.00 0.00 69 1011.6
20260903232332 91 122 7.0 17.0 0.00 0.00 0.00 68 1011.4
20260903231322 90 81 9.0 21.0 0.00 0.00 0.00 70 1011.4
20260903230333 91 99 6.0 18.0 0.00 0.00 0.00 71 1011.3
20260903225324 93 143 7.0 17.0 0.00 0.00 0.00 67 1011.1
20260903224334 93 148 6.0 17.0 0.00 0.00 0.00 67 1011.1
20260903223322 93 293 6.0 16.0 0.00 0.00 0.00 65 1011.0
20260903222333 93 96 7.0 16.0 0.00 0.00 0.00 64 1011.1
20260903221324 94 84 9.0 17.0 0.00 0.00 0.00 64 1011.1
20260903220334 94 98 6.0 15.0 0.00 0.00 0.00 63 1011.1
20260903215323 94 113 6.0 14.0 0.00 0.00 0.00 63 1011.1
20260903214334 94 70 6.0 15.0 0.00 0.00 0.00 62 1010.9
20260903213345 94 89 5.0 12.0 0.00 0.00 0.00 62 1011.1
20260903212335 94 80 7.0 12.0 0.00 0.00 0.00 62 1011.2
20260903211345 94 51 5.0 11.0 0.00 0.00 0.00 62 1011.3
20260903210326 95 70 4.0 15.0 0.00 0.00 0.00 62 1011.4
20260903205346 95 131 5.0 13.0 0.00 0.00 0.00 61 1011.4
20260903204328 96 108 5.0 11.0 0.00 0.00 0.00 60 1011.5
20260903203339 95 122 6.0 12.0 0.00 0.00 0.00 60 1011.6
20260903202330 95 139 6.0 15.0 0.00 0.00 0.00 62 1012.1
20260903201322 95 88 6.0 8.0 0.00 0.00 0.00 59 1012.1
20260903200333 95 78 5.0 12.0 0.00 0.00 0.00 59 1012.3
20260903195325 94 77 2.0 7.0 0.00 0.00 0.00 62 1012.3
20260903194335 93 91 4.0 8.0 0.00 0.00 0.00 64 1012.5
20260903193327 94 96 2.0 8.0 0.00 0.00 0.00 61 1012.6
20260903192337 94 131 1.0 7.0 0.00 0.00 0.00 63 1012.8
20260903191326 93 125 2.0 9.0 0.00 0.00 0.00 63 1012.9
20260903190332 92 79 3.0 9.0 0.00 0.00 0.00 63 1013.1
20260903185340 93 124 2.0 7.0 0.00 0.00 0.00 64 1013.2
20260903184328 92 122 3.0 9.0 0.00 0.00 0.00 65 1013.3
20260903183339 92 127 2.0 7.0 0.00 0.00 0.00 65 1013.5
20260903182329 92 105 2.0 7.0 0.00 0.00 0.00 65 1013.7
20260903181339 92 108 2.0 8.0 0.00 0.00 0.00 66 1013.8
20260903180322 91 84 4.0 9.0 0.00 0.00 0.00 66 1013.9
20260903175341 90 165 3.0 7.0 0.00 0.00 0.00 67 1014.2
20260903174322 90 108 2.0 6.0 0.00 0.00 0.00 69 1014.3
20260903173334 89 86 3.0 8.0 0.00 0.00 0.00 70 1014.4
20260903172324 89 124 2.0 6.0 0.00 0.00 0.00 69 1014.5
20260903171332 89 105 2.0 4.0 0.00 0.00 0.00 70 1014.7
20260903170341 89 120 0.0 4.0 0.00 0.00 0.00 71 1014.7
20260903165332 89 136 1.0 6.0 0.00 0.00 0.00 70 1014.5
20260903164322 89 184 2.0 6.0 0.00 0.00 0.00 71 1014.5
20260903163333 89 230 2.0 6.0 0.00 0.00 0.00 71 1014.4
20260903162321 89 208 2.0 9.0 0.00 0.00 0.00 72 1014.4
20260903161332 88 217 3.0 8.0 0.00 0.00 0.00 73 1014.3
20260903160322 88 202 2.0 8.0 0.00 0.00 0.00 73 1014.2
20260903155333 87 214 4.0 9.0 0.00 0.00 0.00 74 1014.2
20260903154324 87 119 4.0 9.0 0.00 0.00 0.00 75 1014.2
20260903153331 86 175 1.0 11.0 0.00 0.00 0.00 75 1014.1
20260903152322 86 225 5.0 11.0 0.00 0.00 0.00 76 1014.1
20260903151332 86 229 5.0 11.0 0.00 0.00 0.00 78 1014.0
20260903150324 85 160 5.0 10.0 0.00 0.00 0.00 79 1014.1
20260903145329 85 219 4.0 11.0 0.00 0.00 0.00 80 1014.0
20260903144339 84 202 4.0 11.0 0.00 0.00 0.00 82 1014.1
20260903143321 83 187 3.0 10.0 0.00 0.00 0.00 83 1014.2
20260903142337 83 193 4.0 10.0 0.00 0.00 0.00 84 1014.1
20260903141348 83 205 2.0 12.0 0.00 0.00 0.00 85 1014.1
20260903140327 82 219 2.0 12.0 0.00 0.00 0.00 86 1014.2
20260903135347 82 219 5.0 11.0 0.00 0.00 0.00 87 1014.2
20260903134329 81 206 3.0 9.0 0.00 0.00 0.00 87 1014.2
20260903133339 81 138 1.0 13.0 0.00 0.00 0.00 88 1014.1
20260903132329 81 221 4.0 11.0 0.00 0.00 0.00 89 1014.1
20260903131321 80 155 4.0 11.0 0.00 0.00 0.00 89 1014.1
20260903130332 80 143 4.0 8.0 0.00 0.00 0.00 90 1014.1
20260903125337 80 167 5.0 10.0 0.00 0.00 0.00 90 1014.0
20260903124328 80 157 4.0 10.0 0.00 0.00 0.00 91 1013.9
20260903123332 80 183 4.0 11.0 0.00 0.00 0.00 91 1013.8
20260903122323 80 223 2.0 8.0 0.00 0.00 0.00 91 1013.7
20260903121334 80 261 2.0 8.0 0.00 0.00 0.00 91 1013.6
20260903120325 80 141 1.0 7.0 0.00 0.00 0.00 91 1013.5